Location: Unnamed
(48.2382°N, 16.3826°E)
Time: 11:31:25
(UTC+02:00)

Falcon 9 debris - Pass Details

Date: 17 August 2020
Orbit: 426 x 434 km, 53.0° (Epoch: 23 September)

Event Time Altitude Azimuth Distance (km) Brightness Sun altitude
Rises 21:51:51 0° 288° (WNW) 2,411 ? -16.1°
Reaches altitude 10° 21:54:04 10° 297° (WNW) 1,543 ? -16.3°
Maximum altitude 21:57:20 38° 7° (N) 686 ? -16.7°
Enters shadow 21:59:25 19° 67° (ENE) 1,120 ? -17.0°
